Nome, AK

9:31 AM AKST on December 12, 2017 (GMT -0900)
Nome

Weather History for PAOM - February, 2014

Change the Weather History Date:

Saturday, February 22, 2014

  Actual Average Record
Temperature  
Mean Temperature 24 °F 9 °F  
Max Temperature 30 °F 17 °F 35 °F (1940)
Min Temperature 18 °F 1 °F -36 °F (1971)
Degree Days  
Heating Degree Days 41 56  
Month to date heating degree days 1222 1275  
Since 1 July heating degree days 7931 8943  
Cooling Degree Days 0 0  
Month to date cooling degree days 0 0  
Year to date cooling degree days 0 0  
Moisture  
Dew Point 20 °F    
Average Humidity 0    
Maximum Humidity 0    
Minimum Humidity 0    
Precipitation  
Precipitation 0.34 in 0.03 in 0.70 in (1922)
Month to date precipitation 0.39 0.74  
Year to date precipitation 1.96 1.68  
Snow  
Snow 5.00 in 0.50 in 7.00 in (1922)
Month to date snowfall 7.1 9.6  
Since 1 July snowfall 52.3 54.1  
Snow Depth 4.00 in    
Sea Level Pressure  
Sea Level Pressure 29.83 in    
Wind  
Wind Speed 24 mph (East)    
Max Wind Speed 33 mph    
Max Gust Speed 45 mph    
Visibility 3 miles    
Events Snow    
T = Trace of Precipitation, MM = Missing Value Source: NWS Daily Summary

Daily Weather History Graph

Daily Weather History Graph

Search for Another Location

Airport or City:

Trip Planner

Search our weather history database for the weather conditions in past years. The results will help you decide how hot, cold, wet, or windy it might be!

Date:

Astronomy

Feb. 22, 2014 Rise Set
Actual Time 9:33 AM AKST 6:57 PM AKST
Civil Twilight 8:43 AM AKST 7:48 PM AKST
Nautical Twilight 7:47 AM AKST 8:44 PM AKST
Astronomical Twilight 6:51 AM AKST 9:40 PM AKST
Moon 4:47 AM AKST (2/22) 11:10 AM AKST (2/22)
Length of Visible Light 11h 04m
Length of Day
9h 24m
Waning Gibbous, 48% of the Moon is Illuminated
Feb 22
Waning Gibbous
Feb 28
New
Mar 8
First Quarter
Mar 16
Full
Mar 23
Last Quarter

Hourly Weather History & Observations

Time (AKST) Temp. Windchill Dew Point Humidity Pressure Visibility Wind Dir Wind Speed Gust Speed Precip Events Conditions
12:53 AM 21.0 °F 4.3 °F -0.9 °F 38% 29.92 in 10.0 mi ENE 24.2 mph 35.7 mph N/A Snow Low Drifting Snow
1:53 AM 21.0 °F 4.3 °F -0.0 °F 40% 29.90 in 10.0 mi ENE 24.2 mph 33.4 mph N/A Snow Low Drifting Snow
2:53 AM 21.9 °F 4.5 °F 1.0 °F 40% 29.87 in 10.0 mi ENE 27.6 mph 36.8 mph N/A Snow Low Drifting Snow
3:53 AM 21.9 °F 3.9 °F 5.0 °F 48% 29.84 in 10.0 mi East 29.9 mph 41.4 mph N/A Snow Low Drifting Snow
4:53 AM 21.0 °F 3.3 °F 9.0 °F 60% 29.83 in 9.0 mi East 27.6 mph 39.1 mph N/A Snow Low Drifting Snow
5:22 AM 19.4 °F 1.4 °F 15.8 °F 86% 29.81 in 1.8 mi East 26.5 mph 36.8 mph 0.00 in Snow Light Snow
5:53 AM 18.0 °F 0.6 °F 16.0 °F 92% 29.81 in 1.5 mi East 23.0 mph 32.2 mph 0.00 in Snow Light Snow
6:34 AM 19.4 °F 1.8 °F 17.6 °F 93% 29.80 in 2.0 mi East 25.3 mph 35.7 mph 0.00 in Snow Light Snow
6:45 AM 19.4 °F 1.4 °F 17.6 °F 93% 29.80 in 1.8 mi East 26.5 mph 36.8 mph 0.01 in Snow Light Snow
6:53 AM 19.0 °F 1.6 °F 17.1 °F 92% 29.80 in 1.5 mi East 24.2 mph 35.7 mph 0.01 in Snow Light Snow
7:53 AM 19.9 °F 3.9 °F 18.0 °F 92% 29.81 in 1.2 mi East 20.7 mph 29.9 mph 0.02 in Snow Light Snow
8:40 AM 21.2 °F 3.3 °F 19.4 °F 93% 29.81 in 0.8 mi East 28.8 mph 35.7 mph 0.02 in Snow Light Snow
8:48 AM 21.2 °F 4.2 °F 19.4 °F 93% 29.81 in 1.2 mi East 25.3 mph 35.7 mph 0.02 in Snow Light Snow
8:53 AM 21.0 °F 3.9 °F 19.9 °F 96% 29.81 in 1.5 mi East 25.3 mph 33.4 mph 0.02 in Snow Light Snow
9:53 AM 21.9 °F 4.5 °F 19.9 °F 92% 29.81 in 1.0 mi East 27.6 mph 34.5 mph 0.03 in Snow Light Snow
10:08 AM 21.2 °F 3.3 °F 21.2 °F 100% 29.81 in 0.5 mi East 28.8 mph 35.7 mph 0.00 in Snow Snow
10:53 AM 21.9 °F 4.8 °F 21.0 °F 96% 29.82 in 1.5 mi East 26.5 mph 34.5 mph 0.03 in Snow Light Snow
10:55 AM 21.2 °F 3.5 °F 21.2 °F 100% 29.82 in 1.5 mi East 27.6 mph 34.5 mph 0.00 in Snow Light Snow
11:09 AM 21.2 °F 3.9 °F 21.2 °F 100% 29.82 in 1.8 mi East 26.5 mph 35.7 mph 0.01 in Snow Light Snow
11:53 AM 21.9 °F 5.5 °F 21.0 °F 96% 29.83 in 1.0 mi East 24.2 mph 35.7 mph 0.02 in Snow Light Snow
12:53 PM 23.0 °F 6.9 °F 21.0 °F 92% 29.84 in 1.0 mi East 24.2 mph 34.5 mph 0.02 in Snow Light Snow
1:00 PM 23.0 °F 6.3 °F 21.2 °F 93% 29.84 in 0.5 mi East 26.5 mph 34.5 mph 0.00 in Snow Snow
1:53 PM 23.0 °F 6.3 °F 21.9 °F 96% 29.85 in 0.5 mi East 26.5 mph 33.4 mph 0.01 in Snow Snow
2:43 PM 24.8 °F 9.6 °F 21.2 °F 86% 29.85 in 0.5 mi East 23.0 mph 29.9 mph 0.03 in Snow Snow
2:53 PM 24.1 °F 8.7 °F 23.0 °F 96% 29.86 in 0.5 mi East 23.0 mph 32.2 mph 0.04 in Snow Snow
3:53 PM 24.1 °F 8.7 °F 23.0 °F 96% 29.85 in 0.2 mi East 23.0 mph 28.8 mph 0.02 in Snow Heavy Snow
4:53 PM 25.0 °F 10.9 °F 24.1 °F 96% 29.85 in 0.5 mi East 19.6 mph 32.2 mph 0.03 in Snow Snow
5:33 PM 24.8 °F 9.3 °F 24.8 °F 100% 29.84 in 0.8 mi East 24.2 mph 31.1 mph 0.04 in Snow Light Snow
5:53 PM 25.0 °F 9.9 °F 24.1 °F 96% 29.84 in 1.0 mi East 23.0 mph 28.8 mph 0.05 in Snow Light Snow
6:39 PM 24.8 °F 10.0 °F 24.8 °F 100% 29.84 in 1.2 mi East 21.9 mph - 0.01 in   Light Freezing Drizzle
6:53 PM 25.0 °F 10.9 °F 24.1 °F 96% 29.84 in 1.2 mi East 19.6 mph 29.9 mph 0.01 in Snow Light Freezing Drizzle
7:10 PM 26.6 °F 12.7 °F 24.8 °F 93% 29.84 in 2.0 mi East 20.7 mph - 0.00 in Snow Light Snow
7:40 PM 26.6 °F 12.7 °F 24.8 °F 93% 29.83 in 3.0 mi East 20.7 mph 29.9 mph 0.00 in Snow Light Snow
7:53 PM 27.0 °F 12.8 °F 26.1 °F 96% 29.83 in 3.0 mi East 21.9 mph 28.8 mph 0.00 in Snow Light Snow
8:11 PM 26.6 °F 12.7 °F 26.6 °F 100% 29.82 in 3.0 mi East 20.7 mph 27.6 mph 0.01 in Snow Light Snow
8:53 PM 27.0 °F 13.5 °F 26.1 °F 96% 29.82 in 3.0 mi East 19.6 mph 28.8 mph 0.01 in Snow Light Snow
9:10 PM 26.6 °F 13.1 °F 26.6 °F 100% 29.81 in 8.0 mi East 19.6 mph - 0.01 in   Light Freezing Drizzle
9:53 PM 27.0 °F 13.2 °F 26.1 °F 96% 29.81 in 6.0 mi East 20.7 mph - 0.02 in Snow Light Snow
10:43 PM 28.4 °F 15.4 °F 24.8 °F 86% 29.80 in 6.0 mi East 19.6 mph 25.3 mph 0.00 in Snow Light Snow
10:53 PM 28.0 °F 14.9 °F 25.0 °F 88% 29.80 in 4.0 mi East 19.6 mph - 0.00 in Snow Light Snow
11:20 PM 28.4 °F 15.1 °F 24.8 °F 86% 29.79 in 6.0 mi ENE 20.7 mph 26.5 mph 0.00 in Snow Light Freezing Drizzle
11:42 PM 28.4 °F 15.4 °F 24.8 °F 86% 29.79 in 8.0 mi East 19.6 mph - 0.00 in Snow Light Snow
11:53 PM 28.9 °F 16.5 °F 25.0 °F 85% 29.78 in 10.0 mi East 18.4 mph 26.5 mph 0.00 in   Overcast